Regional Weather Roundup
Issued by NWS

Home | Current Version | Previous Version | Text Only | Print | Product List | Glossary Off
Versions: 1 2 3 4 5 6 7 8 9 10 11 12 13 14 15 16 17 18 19 20 21 22 23 24 25 26 27 28 29 30 31 32 33 34 35 36 37 38 39 40 41 42 43 44 45 46 47 48 49 50

000
ASUS43 KBIS 070402
RWRND

NORTH DAKOTA REGIONAL WEATHER ROUNDUP
NATIONAL WEATHER SERVICE BISMARCK ND
1000 PM CST TUE DEC 06 2016

NOTE: "FAIR" INDICATES FEW OR NO CLOUDS BELOW 12,000 FEET WITH NO
SIGNIFICANT WEATHER AND/OR OBSTRUCTIONS TO VISIBILITY.


NDZ001>003-009>011-017-070500-
NORTHWEST NORTH DAKOTA

CITY           SKY/WX    TMP DP  RH WIND       PRES   REMARKS
WILLISTON      CLOUDY     3  -4  72 NW16G26   30.15R WCI -16
MINOT          LGT SNOW   7   1  76 W33G41    29.98R WCI -17
MINOT AFB      LGT SNOW   5   1  82 NW36G44   29.97R VSB 3/4 WCI -20
$$

NDZ018>021-031>035-040>046-070500-
SOUTHWEST NORTH DAKOTA

CITY           SKY/WX    TMP DP  RH WIND       PRES   REMARKS
BISMARCK       CLOUDY     6   2  83 NW22G39   30.05R WCI -15
DICKINSON      CLOUDY     1  -5  75 NW26G32   30.05R HAZE    WCI -23
GARRISON         N/A      5   0  79 NW30G38   30.01R WCI -19
HETTINGER ARPT CLOUDY     3  -3  76 NW26      30.08R WCI -21
$$

NDZ004>008-012>016-024-026-027-054-070500-
NORTHEAST NORTH DAKOTA

CITY           SKY/WX    TMP DP  RH WIND       PRES   REMARKS
GRAND FORKS    LGT SNOW  18  13  80 NW26G38   29.68R VSB 1   WCI  -1
GRND FRKS AFB  MIX PCPN  17  11  78 NW29G39   29.69R WCI  -2
DEVILS LAKE    LGT SNOW  10   6  84 W35G45    29.78R VSB 3/4 WCI -13
$$

NDZ022-023-025-028>030-036>039-047>053-070500-
SOUTHEAST NORTH DAKOTA

CITY           SKY/WX    TMP DP  RH WIND       PRES   REMARKS
FARGO          CLOUDY    16   9  74 W31G39    29.77R WCI  -4
JAMESTOWN      LGT SNOW   9   5  84 NW30G41   29.86R VSB 3/4 WCI -14
$$





USA.gov is the U.S. government's official web portal to all federal, state and local government web resources and services.